Location: Castifao
(42.5040°N, 9.1124°E)
Time: 17:13:44
(UTC+00:00)

Cosmos 1125 Rocket - Pass Details

Date: 23 January 2020
Orbit: 757 x 780 km, 74.0° (Epoch: 22 February)

Event Time Altitude Azimuth Distance (km) Brightness Sun altitude
Rises 16:51:43 0° 205° (SSW) 3,199 7.5 -5.4°
Reaches altitude 10° 16:54:05 10° 207° (SSW) 2,278 6.8 -5.8°
Maximum altitude 16:59:14 70° 291° (WNW) 808 3.8 -6.7°
Drops below altitude 10° 17:04:26 10° 16° (NNE) 2,302 5.6 -7.6°
Sets 17:06:50 0° 18° (NNE) 3,235 6.4 -8.0°
